Location: Berlin
(52.5200°N, 13.4050°E)
Time: 17:23:03
(UTC+02:00)

ISS - Visible Passes

Search period start: 25 May 2020 00:00
Search period end: 04 June 2020 00:00
Orbit: 417 x 420 km, 51.6° (Epoch: 26 May)

Date Brightness Start Highest point End Pass type
(mag) Time Alt. Az. Time Alt. Az. Time Alt. Az.
25 May -1.6 00:46:31 10° W 00:47:37 15° WSW 00:47:37 15° WSW visible
25 May -3.7 22:21:29 10° W 22:24:51 66° SSW 22:28:12 10° ESE visible
25 May -2.5 23:58:28 10° W 00:01:18 25° SSW 00:01:21 25° SSW visible
26 May -2.9 23:10:33 10° W 23:13:38 33° SSW 23:15:06 23° SSE visible
27 May -3.2 22:22:41 10° W 22:25:55 44° SSW 22:28:52 12° SE visible
28 May -1.5 00:00:27 10° WSW 00:01:47 13° SW 00:01:47 13° SW visible
28 May -1.9 23:12:04 10° W 23:14:29 18° SW 23:15:35 16° S visible
29 May -2.3 22:23:59 10° W 22:26:50 25° SSW 22:29:24 11° SSE visible
31 May -1.4 22:25:51 10° WSW 22:27:32 13° SW 22:29:13 10° S visible
